Date String (YYYY-MM-DD hh:mm:ss) UTC,Instrument flags,Ambient pressure (hPa),Sample flow (lpm),Bypass flow (lpm),Sample temperature (°C),Ambient temperature (°C),ASC tube jacket temperature (°C),LED temperature (°C),Box temperature (°C),Sample RH (%),Span deviation,Mass concentration (μg/m³),Mass concentration (μg/m³),Mass concentration (μg/m³)
DateTimeUTC,F1_M11,P_M11,Q1_M11,Q2_M11,T1_M11,T2_M11,T3_M11,T4_M11,T5_M11,U1_M11,ZSPAN_M11,X0_M11,X2_M11,X1_M11
2022-04-24 04:00:00,,0820.8,4.99,0.00,23.0,21.9,00.0,31.9,24.7,10.7,0000.0,0001.31,0000.42,0000.28
2022-04-24 04:01:00,,0820.9,5.00,0.00,23.0,21.9,00.0,31.9,24.7,10.8,0000.0,0001.30,0000.41,0000.28
2022-04-24 04:02:00,,0820.8,5.01,0.00,23.0,21.9,00.0,31.9,24.6,10.8,0000.0,0001.28,0000.40,0000.28
2022-04-24 04:03:00,,0820.9,4.99,0.00,23.0,21.9,00.0,31.9,24.6,10.9,0000.0,0001.65,0000.38,0000.28
2022-04-24 04:04:00,,0820.8,5.00,0.00,23.0,21.9,00.0,31.9,24.7,10.9,0000.0,0001.59,0000.39,0000.28
2022-04-24 04:05:00,,0820.8,5.02,0.00,23.0,21.9,00.0,31.9,24.6,11.1,0000.0,0001.55,0000.41,0000.28
2022-04-24 04:06:00,,0820.8,5.00,0.00,23.0,21.9,00.0,31.9,24.6,11.2,0000.0,0001.44,0000.42,0000.28
2022-04-24 04:07:00,,0820.8,4.99,0.00,22.9,21.9,00.0,31.9,24.6,11.2,0000.0,0001.60,0000.45,0000.29
2022-04-24 04:08:00,,0820.9,4.99,0.00,23.0,21.8,00.0,31.9,24.6,11.2,0000.0,0001.56,0000.44,0000.29
2022-04-24 04:09:00,,0820.9,5.00,0.00,23.0,21.8,00.0,31.9,24.6,11.1,0000.0,0001.95,0000.45,0000.29
2022-04-24 04:10:00,,0820.9,5.00,0.00,22.9,21.8,00.0,31.9,24.6,11.2,0000.0,0001.87,0000.44,0000.29
2022-04-24 04:11:00,,0820.9,5.02,0.00,22.9,21.8,00.0,31.9,24.6,11.2,0000.0,0001.91,0000.45,0000.29
2022-04-24 04:12:00,,0821.0,5.00,0.00,22.9,21.8,00.0,31.9,24.6,11.3,0000.0,0001.90,0000.44,0000.29
2022-04-24 04:13:00,,0821.0,5.00,0.00,22.9,21.7,00.0,31.9,24.6,11.3,0000.0,0001.92,0000.46,0000.29
2022-04-24 04:14:00,,0821.0,5.00,0.00,22.9,21.7,00.0,31.9,24.6,11.3,0000.0,0001.57,0000.47,0000.29
2022-04-24 04:15:00,,0821.0,5.02,0.00,22.9,21.7,00.0,31.9,24.6,11.0,0000.0,0001.45,0000.47,0000.29
2022-04-24 04:16:00,,0821.0,5.00,0.00,22.9,21.7,00.0,31.9,24.5,10.7,0000.0,0001.53,0000.48,0000.30
2022-04-24 04:17:00,,0821.1,4.99,0.00,22.9,21.7,00.0,31.9,24.6,10.8,0000.0,0001.60,0000.49,0000.31
2022-04-24 04:18:00,,0821.1,5.01,0.00,22.9,21.8,00.0,31.9,24.6,10.8,0000.0,0001.48,0000.48,0000.31
2022-04-24 04:19:00,,0821.1,4.99,0.00,22.8,21.8,00.0,31.9,24.6,10.7,0000.0,0001.46,0000.48,0000.32
2022-04-24 04:20:00,,0821.1,5.00,0.00,22.8,21.8,00.0,31.9,24.6,10.7,0000.0,0000.99,0000.47,0000.32
2022-04-24 04:21:00,,0821.1,5.02,0.00,22.8,21.8,00.0,31.9,24.5,10.7,0000.0,0001.03,0000.49,0000.33
2022-04-24 04:22:00,,0821.1,5.00,0.00,22.8,21.8,00.0,31.9,24.5,10.7,0000.0,0001.09,0000.52,0000.34
2022-04-24 04:23:00,,0821.2,4.99,0.00,22.8,21.8,00.0,31.8,24.5,10.5,0000.0,0001.44,0000.56,0000.35
2022-04-24 04:24:00,,0821.1,5.00,0.00,22.7,21.8,00.0,31.8,24.5,10.6,0000.0,0001.57,0000.56,0000.36
2022-04-24 04:25:00,,0821.2,4.99,0.00,22.7,21.8,00.0,31.8,24.5,10.5,0000.0,0002.65,0000.57,0000.37
2022-04-24 04:26:00,,0821.2,5.00,0.00,22.8,21.8,00.0,31.8,24.5,10.5,0000.0,0003.01,0000.59,0000.38
2022-04-24 04:27:00,,0821.2,5.00,0.00,22.8,21.8,00.0,31.8,24.5,10.5,0000.0,0002.86,0000.57,0000.38
2022-04-24 04:28:00,,0821.2,4.99,0.00,22.8,21.9,00.0,31.8,24.5,10.5,0000.0,0003.33,0000.58,0000.38
2022-04-24 04:29:00,,0821.2,5.00,0.00,22.8,21.9,00.0,31.8,24.6,10.5,0000.0,0003.67,0000.57,0000.39
2022-04-24 04:30:00,,0821.2,5.02,0.00,22.8,21.9,00.0,31.8,24.6,10.6,0000.0,0003.66,0000.57,0000.39
2022-04-24 04:31:00,,0821.2,5.00,0.00,22.8,22.0,00.0,31.8,24.6,10.7,0000.0,0003.68,0000.57,0000.38
2022-04-24 04:32:00,,0821.2,4.99,0.00,22.8,21.9,00.0,31.8,24.5,10.9,0000.0,0003.81,0000.56,0000.38
2022-04-24 04:33:00,,0821.2,5.00,0.00,22.8,21.9,00.0,31.8,24.5,10.9,0000.0,0003.73,0000.53,0000.37
2022-04-24 04:34:00,,0821.1,4.99,0.00,22.8,21.9,00.0,31.8,24.5,11.0,0000.0,0003.44,0000.49,0000.35
2022-04-24 04:35:00,,0821.1,5.00,0.00,22.8,21.9,00.0,31.8,24.6,11.3,0000.0,0003.29,0000.50,0000.35
2022-04-24 04:36:00,,0821.1,5.00,0.00,22.8,21.9,00.0,31.8,24.5,11.3,0000.0,0002.38,0000.47,0000.34
2022-04-24 04:37:00,,0821.1,5.00,0.00,22.8,21.9,00.0,31.8,24.5,11.4,0000.0,0001.74,0000.46,0000.33
2022-04-24 04:38:00,,0821.1,5.00,0.00,22.8,21.9,00.0,31.8,24.5,11.6,0000.0,0001.73,0000.46,0000.33
2022-04-24 04:39:00,,0821.1,5.00,0.00,22.8,21.8,00.0,31.8,24.5,11.5,0000.0,0001.28,0000.45,0000.33
2022-04-24 04:40:00,,0821.2,5.00,0.00,22.7,21.8,00.0,31.8,24.5,11.5,0000.0,0000.83,0000.47,0000.33
2022-04-24 04:41:00,,0821.2,5.00,0.00,22.7,21.8,00.0,31.8,24.4,11.5,0000.0,0000.88,0000.49,0000.33
2022-04-24 04:42:00,,0821.1,5.00,0.00,22.7,21.7,00.0,31.7,24.4,11.5,0000.0,0000.97,0000.51,0000.34
2022-04-24 04:43:00,,0821.1,4.99,0.00,22.7,21.7,00.0,31.7,24.3,11.5,0000.0,0000.87,0000.51,0000.34
2022-04-24 04:44:00,,0821.1,5.01,0.00,22.7,21.7,00.0,31.7,24.4,11.7,0000.0,0000.88,0000.53,0000.35
2022-04-24 04:45:00,,0821.0,5.01,0.00,22.7,21.7,00.0,31.7,24.5,11.8,0000.0,0000.89,0000.53,0000.36
2022-04-24 04:46:00,,0820.9,4.99,0.00,22.7,21.7,00.0,31.7,24.5,11.9,0000.0,0000.90,0000.53,0000.37
2022-04-24 04:47:00,,0821.0,5.00,0.00,22.7,21.7,00.0,31.7,24.5,11.9,0000.0,0001.23,0000.54,0000.38
2022-04-24 04:48:00,,0821.0,5.01,0.00,22.7,21.7,00.0,31.7,24.4,11.9,0000.0,0001.27,0000.52,0000.38
2022-04-24 04:49:00,,0821.0,4.99,0.00,22.7,21.7,00.0,31.7,24.4,12.0,0000.0,0001.27,0000.52,0000.38
2022-04-24 04:50:00,,0821.1,5.00,0.00,22.7,21.7,00.0,31.7,24.4,12.0,0000.0,0001.24,0000.50,0000.38
2022-04-24 04:51:00,,0821.0,4.99,0.00,22.7,21.7,00.0,31.7,24.4,12.0,0000.0,0001.19,0000.48,0000.38
2022-04-24 04:52:00,,0821.0,5.00,0.00,22.7,21.7,00.0,31.7,24.4,11.7,0000.0,0001.20,0000.48,0000.38
2022-04-24 04:53:00,,0821.0,5.00,0.00,22.6,21.7,00.0,31.7,24.4,11.7,0000.0,0001.13,0000.48,0000.39
2022-04-24 04:54:00,,0821.0,5.00,0.00,22.6,21.7,00.0,31.7,24.4,11.7,0000.0,0001.09,0000.48,0000.40
2022-04-24 04:55:00,,0821.0,5.00,0.00,22.6,21.7,00.0,31.7,24.4,11.7,0000.0,0002.06,0000.49,0000.40
2022-04-24 04:56:00,,0821.0,5.00,0.00,22.6,21.6,00.0,31.7,24.3,11.7,0000.0,0002.82,0000.51,0000.40
2022-04-24 04:57:00,,0821.0,5.00,0.00,22.6,21.6,00.0,31.7,24.3,11.6,0000.0,0002.95,0000.52,0000.39
2022-04-24 04:58:00,,0821.0,4.99,0.00,22.6,21.6,00.0,31.6,24.3,11.7,0000.0,0002.84,0000.54,0000.39
2022-04-24 04:59:00,,0821.0,5.00,0.00,22.6,21.6,00.0,31.6,24.3,11.9,0000.0,0002.78,0000.54,0000.39
